This is the latest recevied weather packets stored in our database for station/object IR1BY-3. If no packets are shown the sender has not sent any weather packets the latest 10 day(s).
| Time | Temp. | Humidity | Pressure | Rain* | Wind** | Luminosity | Snow |
|---|---|---|---|---|---|---|---|
| 1777684178 | 9.44° C | 99% | 1024.9 hPa | - | - | - | - |
| 1777682374 | 9.44° C | 99% | 1024.9 hPa | - | - | - | - |
| 1777680574 | 8.33° C | 99% | 1025 hPa | - | - | - | - |
| 1777678773 | 8.33° C | 99% | 1025.1 hPa | - | - | - | - |
| 1777676945 | 9.44° C | 99% | 1025 hPa | - | - | - | - |
| 1777675106 | 9.44° C | 99% | 1025.1 hPa | - | - | - | - |
| 1777673305 | 9.44° C | 99% | 1025 hPa | - | - | - | - |
| 1777671505 | 10° C | 99% | 1024.9 hPa | - | - | - | - |
| 1777669705 | 10° C | 99% | 1024.8 hPa | - | - | - | - |
| 1777667905 | 10° C | 99% | 1024.7 hPa | - | - | - | - |
| 1777666104 | 10° C | 99% | 1024.3 hPa | - | - | - | - |
| 1777664304 | 10° C | 99% | 1024 hPa | - | - | - | - |
| 1777662504 | 10.56° C | 99% | 1023.8 hPa | - | - | - | - |
| 1777660703 | 11.11° C | 99% | 1023.7 hPa | - | - | - | - |
| 1777658903 | 12.22° C | 99% | 1023.5 hPa | - | - | - | - |
| 1777657102 | 13.89° C | 99% | 1023.4 hPa | - | - | - | - |
| 1777655302 | 15.56° C | 99% | 1023.2 hPa | - | - | - | - |
| 1777653502 | 17.22° C | 99% | 1023.3 hPa | - | - | - | - |
| 1777651702 | 18.33° C | 99% | 1023.3 hPa | - | - | - | - |
| 1777651446 | 18.89° C | 99% | 1023.4 hPa | - | - | - | - |
| 1777647691 | 20.56° C | 99% | 1023.3 hPa | - | - | - | - |
| 1777645876 | 22.22° C | 99% | 1023.3 hPa | - | - | - | - |
| 1777644073 | 25.56° C | 99% | 1023.8 hPa | - | - | - | - |
| 1777642269 | 28.33° C | 99% | 1024 hPa | - | - | - | - |
| 1777640465 | 29.44° C | 99% | 1024.1 hPa | - | - | - | - |
* Rain since midnight (hover to see other rain measurements)
** Current wind speed in m/s (hover to see current wind gust speed)